�N����,����,�~����,�C��,���x,�C��,����,���ϕ���,�ő�u�ԕ���,�ő厞����,���˗�,�I�_���x,�n�����x,�ő啗���N��,DTYPE
"18/10/26","00:10",0.0,10.7,90.8,1014.5,290.6,1.2,2.7,307.5,0.00,9.3,15.8,"00:01:46",1
"18/10/26","00:20",0.0,10.7,91.8,1014.0,318.7,1.5,2.5,331.0,0.00,9.5,15.6,"00:14:56",1
"18/10/26","00:30",0.0,10.4,91.3,1014.2,324.6,1.5,2.1,328.4,0.00,9.1,15.6,"00:23:28",1
"18/10/26","00:40",0.0,10.3,92.5,1014.2,299.5,1.6,2.4,322.9,0.00,9.2,15.7,"00:37:36",1
"18/10/26","00:50",0.0,10.4,92.5,1014.7,306.5,1.7,2.5,304.7,0.00,9.3,15.2,"00:43:52",1
"18/10/26","01:00",0.0,10.3,92.9,1014.2,309.3,1.5,2.5,322.5,0.00,9.2,15.4,"00:59:44",1
"18/10/26","01:10",0.0,10.1,92.2,1014.5,316.5,1.5,2.6,316.5,0.00,8.9,15.3,"01:09:04",1
"18/10/26","01:20",0.0,9.4,92.4,1014.5,293.8,1.3,1.8,317.3,0.00,8.3,15.4,"01:10:24",1
"18/10/26","01:30",0.0,9.3,94.4,1014.7,304.5,1.2,2.7,318.8,0.00,8.5,15.4,"01:28:16",1
"18/10/26","01:40",0.0,9.2,93.9,1014.5,309.7,1.7,2.4,324.7,0.00,8.3,15.1,"01:31:44",1
"18/10/26","01:50",0.0,9.0,94.6,1014.7,306.4,1.6,2.0,315.9,0.00,8.2,15.1,"01:42:24",1
"18/10/26","02:00",0.0,9.0,95.5,1014.5,300.6,1.6,2.0,312.8,0.00,8.4,15.1,"01:51:04",1
"18/10/26","02:10",0.0,9.2,95.4,1014.7,284.7,1.5,1.7,305.8,0.00,8.5,15.2,"02:09:12",1
"18/10/26","02:20",0.0,9.3,95.4,1014.5,299.1,1.5,2.0,327.5,0.00,8.6,14.9,"02:13:04",1
"18/10/26","02:30",0.0,9.3,95.4,1014.5,303.4,1.6,2.4,333.5,0.00,8.6,15.1,"02:25:12",1
"18/10/26","02:40",0.0,9.3,95.6,1014.2,299.2,1.6,2.4,299.6,0.00,8.7,15.1,"02:31:12",1
"18/10/26","02:50",0.0,9.2,95.6,1013.8,286.6,1.2,1.8,310.1,0.00,8.6,14.8,"02:46:56",1
"18/10/26","03:00",0.0,9.1,94.9,1014.0,305.7,1.3,2.5,310.7,0.00,8.4,14.8,"02:58:32",1
"18/10/26","03:10",0.0,8.7,96.1,1014.0,323.7,2.5,2.8,317.9,0.00,8.2,14.8,"03:04:40",1
"18/10/26","03:20",0.0,8.5,95.6,1014.0,302.4,1.6,2.6,319.7,0.00,7.9,14.8,"03:11:44",1
"18/10/26","03:30",0.0,8.3,97.0,1014.0,301.2,1.5,2.2,313.6,0.00,7.9,14.6,"03:29:20",1
"18/10/26","03:40",0.0,8.3,96.5,1014.0,313.8,2.1,2.7,317.4,0.00,7.8,14.6,"03:35:04",1
"18/10/26","03:50",0.0,8.2,97.0,1014.2,306.3,1.7,2.2,311.2,0.00,7.8,14.7,"03:47:44",1
"18/10/26","04:00",0.0,8.2,97.1,1013.8,292.6,1.5,1.8,312.8,0.00,7.8,14.8,"03:50:16",1
"18/10/26","04:10",0.0,8.5,97.8,1013.8,291.2,1.5,2.4,316.7,0.00,8.2,14.4,"04:06:56",1
"18/10/26","04:20",0.0,8.7,97.5,1014.2,289.2,1.5,1.8,284.8,0.00,8.4,14.6,"04:11:44",1
"18/10/26","04:30",0.0,8.4,96.8,1014.5,304.7,1.2,1.9,325.9,0.00,8.0,14.4,"04:20:56",1
"18/10/26","04:40",0.0,8.1,97.0,1014.0,308.9,1.7,2.4,319.3,0.00,7.7,14.6,"04:30:02",1
"18/10/26","04:50",0.0,8.0,97.7,1013.8,313.6,2.0,2.6,322.9,0.00,7.7,14.3,"04:42:16",1
"18/10/26","05:00",0.0,7.8,97.4,1014.2,307.3,1.2,2.1,322.2,0.00,7.5,14.4,"04:59:04",1
"18/10/26","05:10",0.0,7.7,97.5,1014.5,299.7,1.3,2.1,311.5,0.00,7.4,14.3,"05:04:40",1
"18/10/26","05:20",0.0,7.6,98.0,1014.0,294.4,1.2,1.7,308.7,0.00,7.3,14.1,"05:11:44",1
"18/10/26","05:30",0.0,7.8,97.3,1014.2,300.4,1.5,1.8,311.3,0.00,7.4,14.1,"05:24:08",1
"18/10/26","05:40",0.0,7.7,98.4,1014.0,309.8,2.0,2.4,314.7,0.00,7.5,14.2,"05:34:32",1
"18/10/26","05:50",0.0,7.7,97.2,1014.0,303.5,1.6,1.9,313.6,0.00,7.3,14.0,"05:41:28",1
"18/10/26","06:00",0.0,7.4,97.8,1014.0,302.4,1.6,2.0,312.9,0.00,7.1,14.1,"05:53:28",1
"18/10/26","06:10",0.0,7.3,98.2,1013.8,299.7,1.6,2.4,318.3,0.00,7.1,14.0,"06:00:02",1
"18/10/26","06:20",0.0,7.5,97.9,1014.0,305.4,1.8,2.2,320.9,0.00,7.2,14.0,"06:10:08",1
"18/10/26","06:30",0.0,7.4,98.5,1014.0,307.1,1.0,2.0,311.1,0.00,7.2,13.9,"06:20:48",1
"18/10/26","06:40",0.0,7.8,98.2,1013.8,307.2,1.8,2.0,312.7,0.00,7.6,13.8,"06:32:34",1
"18/10/26","06:50",0.0,7.9,97.7,1013.8,305.2,1.1,2.0,311.9,0.00,7.6,13.9,"06:40:08",1
"18/10/26","07:00",0.0,8.1,99.2,1013.8,302.4,1.2,1.7,323.7,0.00,8.0,13.7,"06:58:24",1
"18/10/26","07:10",0.0,8.7,98.1,1014.0,282.3,0.8,1.1,277.4,0.00,8.5,13.6,"07:08:40",1
"18/10/26","07:20",0.0,9.2,97.9,1014.0,267.9,0.7,1.1,279.1,0.01,8.9,13.9,"07:11:36",1
"18/10/26","07:30",0.0,9.8,98.3,1014.2,254.0,0.3,1.0,285.5,0.01,9.6,14.0,"07:29:20",1
"18/10/26","07:40",0.0,10.7,97.7,1014.2,274.1,0.3,0.9,295.9,0.02,10.4,14.0,"07:30:16",1
"18/10/26","07:50",0.0,10.9,96.9,1014.7,259.5,0.2,0.6,232.6,0.04,10.5,14.2,"07:43:36",1
"18/10/26","08:00",0.0,11.7,95.8,1014.9,289.0,0.2,0.5,317.0,0.05,11.1,14.2,"07:54:32",1
"18/10/26","08:10",0.0,12.4,92.2,1014.9,330.6,0.8,2.0,336.6,0.07,11.2,14.3,"08:09:36",1
"18/10/26","08:20",0.0,13.1,89.1,1014.7,300.6,0.5,2.0,322.8,0.10,11.4,14.2,"08:10:16",1
"18/10/26","08:30",0.0,13.6,86.3,1014.9,283.9,0.6,1.3,311.2,0.13,11.4,14.3,"08:23:12",1
"18/10/26","08:40",0.0,14.4,84.0,1014.9,297.9,0.3,1.0,317.2,0.16,11.8,14.6,"08:36:40",1
"18/10/26","08:50",0.0,14.8,82.8,1015.2,257.7,0.2,0.6,275.2,0.19,11.9,14.8,"08:48:00",1
"18/10/26","09:00",0.0,15.3,78.9,1015.2,191.1,0.3,0.8,121.3,0.22,11.7,14.8,"08:52:56",1
"18/10/26","09:10",0.0,16.0,78.0,1015.4,168.4,0.3,1.1,123.6,0.24,12.2,15.2,"09:02:32",1
"18/10/26","09:20",0.0,16.3,74.2,1015.4,211.2,0.6,1.2,106.0,0.26,11.7,15.4,"09:16:00",1
"18/10/26","09:30",0.0,17.3,72.8,1015.4,275.7,0.5,1.1,265.5,0.29,12.4,15.8,"09:22:00",1
"18/10/26","09:40",0.0,17.6,70.8,1015.2,191.6,0.6,1.9,197.0,0.31,12.3,16.0,"09:30:02",1
"18/10/26","09:50",0.0,17.7,69.3,1015.2,231.3,0.8,1.9,225.3,0.33,12.1,16.2,"09:48:08",1
"18/10/26","10:00",0.0,18.4,67.6,1014.5,207.3,0.5,1.8,202.1,0.35,12.3,16.4,"09:50:08",1
"18/10/26","10:10",0.0,18.7,65.8,1014.2,256.7,0.8,1.8,186.1,0.36,12.2,16.7,"10:05:36",1
"18/10/26","10:20",0.0,19.1,66.6,1014.0,231.8,1.0,2.1,232.1,0.38,12.8,16.8,"10:15:44",1
"18/10/26","10:30",0.0,19.7,64.6,1013.5,180.3,1.1,2.7,216.4,0.40,12.9,17.2,"10:20:02",1
"18/10/26","10:40",0.0,19.8,62.9,1013.5,230.7,1.0,2.1,219.9,0.41,12.6,17.5,"10:30:08",1
"18/10/26","10:50",0.0,19.9,62.5,1013.3,214.2,1.2,2.5,219.5,0.42,12.6,17.7,"10:47:12",1
"18/10/26","11:00",0.0,20.6,60.9,1012.8,168.0,0.6,1.8,124.8,0.43,12.8,18.1,"10:55:44",1
"18/10/26","11:10",0.0,20.3,61.1,1012.6,224.8,1.2,3.2,200.2,0.44,12.6,18.2,"11:07:12",1
"18/10/26","11:20",0.0,20.6,58.9,1012.6,257.1,1.0,3.3,215.5,0.45,12.3,18.5,"11:15:28",1
"18/10/26","11:30",0.0,21.5,58.5,1012.1,285.3,0.8,2.2,332.8,0.45,13.1,18.7,"11:25:36",1
"18/10/26","11:40",0.0,21.5,57.8,1012.3,185.8,1.3,2.4,217.7,0.46,12.9,18.9,"11:36:16",1
"18/10/26","11:50",0.0,21.8,57.6,1011.9,194.4,1.3,3.3,208.0,0.46,13.1,19.3,"11:47:20",1
"18/10/26","12:00",0.0,22.2,55.4,1011.6,209.1,1.2,2.9,219.2,0.46,12.9,19.3,"11:52:40",1
"18/10/26","12:10",0.0,22.5,54.3,1011.2,220.5,1.3,3.4,203.4,0.47,12.9,19.8,"12:05:12",1
"18/10/26","12:20",0.0,22.3,56.1,1010.9,195.7,1.6,4.2,227.8,0.46,13.2,20.0,"12:18:40",1
"18/10/26","12:30",0.0,22.5,53.9,1010.9,194.1,1.3,2.7,223.2,0.47,12.7,20.2,"12:24:32",1
"18/10/26","12:40",0.0,23.1,54.1,1010.4,257.8,1.0,2.4,89.2,0.46,13.4,20.4,"12:34:40",1
"18/10/26","12:50",0.0,23.1,52.8,1010.0,169.5,1.2,3.5,183.6,0.45,13.0,20.5,"12:46:24",1
"18/10/26","13:00",0.0,22.8,53.9,1010.0,142.0,1.7,4.2,125.6,0.44,13.0,20.7,"12:58:16",1
"18/10/26","13:10",0.0,23.4,52.9,1010.0,218.3,2.0,4.1,219.1,0.43,13.3,20.8,"13:06:40",1
"18/10/26","13:20",0.0,23.7,51.7,1009.7,232.4,1.2,3.4,202.8,0.42,13.2,21.3,"13:12:00",1
"18/10/26","13:30",0.0,23.7,53.3,1009.7,188.5,1.3,3.5,212.6,0.41,13.7,21.3,"13:22:00",1
"18/10/26","13:40",0.0,23.8,51.1,1009.5,210.4,1.2,2.8,346.1,0.40,13.1,21.4,"13:38:32",1
"18/10/26","13:50",0.0,24.1,51.3,1009.0,227.7,1.8,4.3,220.9,0.39,13.5,21.5,"13:42:08",1
"18/10/26","14:00",0.0,24.0,50.6,1009.0,172.4,1.7,4.3,229.4,0.37,13.2,21.6,"13:51:04",1
"18/10/26","14:10",0.0,23.8,50.9,1009.0,226.7,1.3,3.1,227.5,0.21,13.1,21.5,"14:09:28",1
"18/10/26","14:20",0.0,24.7,50.3,1008.6,168.2,1.3,3.3,129.3,0.31,13.7,21.7,"14:16:32",1
"18/10/26","14:30",0.0,24.6,50.5,1008.8,214.5,2.3,5.1,223.9,0.31,13.7,21.6,"14:22:16",1
"18/10/26","14:40",0.0,24.6,50.9,1008.6,203.9,2.0,4.8,211.1,0.29,13.8,21.7,"14:38:00",1
"18/10/26","14:50",0.0,24.1,51.2,1009.0,195.9,2.0,4.3,226.8,0.21,13.4,21.6,"14:48:40",1
"18/10/26","15:00",0.0,24.9,50.6,1008.8,233.7,1.5,3.5,223.8,0.34,14.0,21.7,"14:56:16",1
"18/10/26","15:10",0.0,24.6,54.3,1008.1,150.3,1.6,3.1,123.0,0.32,14.8,22.1,"15:04:32",1
"18/10/26","15:20",0.0,23.9,55.1,1008.8,135.3,1.3,3.1,143.7,0.15,14.4,21.8,"15:13:20",1
"18/10/26","15:30",0.0,24.0,54.6,1009.0,105.3,1.3,3.5,121.8,0.08,14.3,21.7,"15:20:24",1
"18/10/26","15:40",0.0,23.3,57.7,1008.8,101.4,1.7,4.3,114.4,0.02,14.5,21.5,"15:38:24",1
"18/10/26","15:50",0.0,22.7,61.0,1008.6,93.6,1.7,4.0,117.2,0.01,14.8,21.4,"15:48:16",1
"18/10/26","16:00",0.0,22.4,62.3,1008.3,83.2,1.5,3.7,117.4,0.01,14.9,21.4,"15:54:16",1
"18/10/26","16:10",0.0,22.3,63.5,1008.8,56.3,1.2,2.4,66.0,0.04,15.1,21.2,"16:03:04",1
"18/10/26","16:20",0.0,22.4,63.7,1008.6,75.5,1.2,3.6,92.8,0.05,15.2,21.2,"16:16:56",1
"18/10/26","16:30",0.0,22.2,64.9,1008.6,86.1,1.2,2.9,109.8,0.00,15.3,21.0,"16:21:28",1
"18/10/26","16:40",0.0,22.2,65.4,1008.6,76.4,1.0,3.3,117.4,0.02,15.4,20.8,"16:39:52",1
"18/10/26","16:50",0.0,22.1,65.8,1008.8,59.5,1.1,3.3,109.0,0.02,15.4,20.7,"16:40:56",1
"18/10/26","17:00",0.0,21.9,66.5,1008.6,27.8,1.0,2.2,329.0,0.01,15.4,20.7,"16:52:08",1
"18/10/26","17:10",0.0,21.5,67.4,1009.0,17.0,0.7,1.9,23.8,0.00,15.3,20.6,"17:07:44",1
"18/10/26","17:20",0.0,21.3,68.5,1008.8,349.3,0.8,1.4,337.1,0.00,15.3,20.6,"17:19:20",1
"18/10/26","17:30",0.0,20.9,69.4,1008.8,18.9,0.8,2.0,29.6,0.00,15.1,20.5,"17:21:44",1
"18/10/26","17:40",0.0,20.7,70.2,1008.8,42.9,0.5,1.7,51.0,0.00,15.1,20.4,"17:30:08",1
"18/10/26","17:50",0.0,20.6,70.4,1009.3,5.6,0.7,1.8,334.7,0.00,15.1,20.3,"17:48:40",1
"18/10/26","18:00",0.0,20.4,72.1,1009.0,75.5,0.3,1.3,100.3,0.00,15.2,20.0,"17:53:52",1
"18/10/26","18:10",0.0,19.9,73.7,1009.5,153.3,0.3,1.3,162.7,0.00,15.1,19.8,"18:02:56",1
"18/10/26","18:20",0.0,19.9,74.8,1009.3,201.3,0.7,1.7,345.9,0.00,15.3,19.9,"18:16:48",1
"18/10/26","18:30",0.0,19.9,75.1,1009.0,173.5,0.5,1.0,149.8,0.00,15.4,19.8,"18:28:08",1
"18/10/26","18:40",0.0,20.0,74.7,1009.0,78.8,0.5,1.6,102.3,0.00,15.4,19.7,"18:37:12",1
"18/10/26","18:50",0.0,20.3,73.2,1008.6,135.6,1.1,2.6,103.1,0.00,15.4,19.6,"18:44:40",1
"18/10/26","19:00",0.0,20.3,72.4,1008.8,128.2,1.6,3.4,134.9,0.00,15.2,19.5,"18:52:56",1
"18/10/26","19:10",0.0,20.2,73.1,1008.8,135.8,1.1,3.1,117.3,0.00,15.3,19.5,"19:00:48",1
"18/10/26","19:20",0.0,20.0,74.4,1008.8,140.1,1.0,2.2,103.3,0.00,15.4,19.6,"19:15:36",1
"18/10/26","19:30",0.0,20.1,74.1,1009.0,83.0,0.8,1.8,143.9,0.00,15.4,19.4,"19:23:44",1
"18/10/26","19:40",0.0,19.9,74.9,1009.0,308.1,0.5,1.0,281.3,0.00,15.4,19.5,"19:38:08",1
"18/10/26","19:50",0.0,19.4,77.1,1009.0,309.6,0.7,1.7,333.2,0.00,15.3,19.2,"19:44:24",1
"18/10/26","20:00",0.0,19.0,80.4,1009.3,251.0,0.8,1.3,201.5,0.00,15.6,19.3,"19:53:52",1
"18/10/26","20:10",0.0,18.9,81.4,1009.3,283.5,0.7,1.8,326.8,0.00,15.7,19.1,"20:02:48",1
"18/10/26","20:20",0.0,18.7,82.6,1009.0,302.0,0.6,1.3,320.0,0.00,15.7,19.1,"20:13:52",1
"18/10/26","20:30",0.2,18.3,84.4,1008.6,310.2,1.0,1.6,323.7,0.00,15.7,19.1,"20:28:40",1
"18/10/26","20:40",0.2,18.1,86.0,1008.6,308.9,1.1,1.6,321.6,0.00,15.8,19.0,"20:38:56",1
"18/10/26","20:50",0.0,17.8,87.6,1008.6,300.5,1.5,2.5,325.6,0.00,15.8,19.0,"20:47:04",1
"18/10/26","21:00",0.0,17.7,88.9,1008.3,313.7,1.7,2.8,321.2,0.00,15.9,19.0,"20:59:12",1
"18/10/26","21:10",0.0,17.5,89.9,1008.1,300.9,1.5,2.4,312.7,0.00,15.9,19.0,"21:09:52",1
"18/10/26","21:20",0.2,17.3,90.6,1008.1,302.6,1.5,2.6,320.2,0.00,15.8,18.8,"21:10:40",1
"18/10/26","21:30",0.0,17.3,91.2,1008.8,338.2,1.3,2.5,331.9,0.00,15.9,19.0,"21:27:20",1
"18/10/26","21:40",0.0,17.2,91.8,1008.3,316.9,1.5,2.2,329.9,0.00,15.9,18.7,"21:33:04",1
"18/10/26","21:50",0.2,17.1,92.2,1008.3,336.4,1.3,2.9,329.0,0.00,15.9,18.7,"21:45:28",1
"18/10/26","22:00",0.2,17.0,92.6,1008.6,331.3,1.6,2.4,334.7,0.00,15.8,18.5,"21:51:28",1
"18/10/26","22:10",0.2,17.0,93.0,1009.0,296.3,1.2,2.1,350.6,0.00,15.9,18.7,"22:03:12",1
"18/10/26","22:20",0.4,17.0,93.2,1008.6,324.8,1.5,2.0,337.1,0.00,15.9,18.5,"22:12:40",1
"18/10/26","22:30",0.4,17.0,93.5,1008.8,311.7,0.6,1.3,347.2,0.00,16.0,18.7,"22:25:36",1
"18/10/26","22:40",0.2,16.9,93.7,1008.3,332.6,1.3,2.0,354.2,0.00,15.9,18.6,"22:36:48",1
"18/10/26","22:50",0.0,16.8,94.0,1008.6,328.7,1.5,2.2,340.2,0.00,15.9,18.6,"22:42:16",1
"18/10/26","23:00",0.2,16.7,94.1,1008.1,335.1,1.3,2.2,329.6,0.00,15.8,18.4,"22:51:52",1
"18/10/26","23:10",0.0,16.6,94.6,1007.8,304.8,1.0,2.0,319.8,0.00,15.8,18.7,"23:00:16",1
"18/10/26","23:20",0.4,16.7,94.7,1007.8,259.4,1.5,2.0,265.4,0.00,15.9,18.4,"23:18:16",1
"18/10/26","23:30",0.4,16.6,94.8,1007.4,306.4,1.2,2.0,319.1,0.00,15.8,18.5,"23:25:12",1
"18/10/26","23:40",0.0,16.5,94.8,1007.6,320.5,1.6,2.4,315.5,0.00,15.7,18.4,"23:34:40",1
"18/10/26","23:50",0.0,16.3,95.1,1007.4,309.2,1.2,1.6,324.1,0.00,15.6,18.2,"23:46:24",1
"18/10/26","24:00",0.4,16.3,95.3,1007.4,298.1,1.2,2.0,335.2,0.00,15.6,18.3,"23:56:56",1
